Powrót do katalogu

SL-23 R/B

AktywnyHEO
NORAD 39238·ROCKET BODY·🇷🇺 Russia

Wystrzelony Aug 31, 2013 z Baikonur Cosmodrome

Loading…

Następne Przeloty (najbliższe 24 godziny)

TLE

ŚwieżeSource: Space-Track

Epoka: Sep 14, 2026, 00:36 UTC

1 39238U 13045B   26257.02553449 -.00000195  00000-0  00000-0 0  9998
2 39238  26.6316  60.8901 6405964 139.0639 293.1582  2.10664027100335

Śledź SL-23 R/B w czasie rzeczywistym z AllMySat

Download on the App Store